CZ-2C DEB, 40265

Orbit data source: Space-Track

CZ-2C DEB, 40265 is space debris in SSO originally from a launch on Sun, 28 Sep 2014 UTC launched from the Jiuquan Satellite Launch Center, China (JSC). Debris objects in space refer to the collection of defunct objects orbiting the Earth. Examples of debris include non-operational satellites, rocket bodies, and fragments generated from explosions, collisions, or faulty payload assembly.

Loading next visibility...
Identifier
40265, 2014-059E
Orbit
SSO
Country
Flag of CNCN / PRC
Related business
Manufacturer
CALT
Mission
Spacecraft
Bus & Motor
Unknown
Mass
1 kg wet, 1 kg dry
Launch date (UTC)
2014-09-28 (12 years ago)
Launch vehicle
Unknown
Launch site
Jiuquan Satellite Launch Center, China (JSC)
Object type
Payload
Rocket body
Debris
Shape & HBR
Cone, 0.1 m
Radar Cross Section
0.025 m², Medium (>0.1 m² and < 1m²)

Expand to show TLE details & history
Last TLE update: 2 days ago

TLE from 2 days ago
0 CZ-2C DEB
1 40265U 14059E   26171.27884547  .00001661  00000-0  53978-3 0  9997
2 40265  97.9259 244.5158 0163865 105.7314 256.2013 14.32585359608603
Epoch: 2026-06-20T06:41Z
TLE epoch observation values (Epoch: 2026-06-20T06:41:32.248Z)
Latitude
-0.00006°
Longitude
-124.36431°
Altitude
815.857 km
Speed
7.43 km/s
True Right ascension
16h 18m 03s
True Declination
0° 00' 00"
Sunlit
Object was in full shadow at epoch
Visualization orbit readout
Latitude
Unknown
Longitude
Unknown
Altitude
Unknown
Speed
Unknown
Apparent Right ascension
Unknown
Apparent Declination
Unknown
Sunlit
N/A
Visualization observer readout
Local Sidereal Time
00:50:38
Azimuth
Unknown
Elevation
Unknown
Doppler factor
Unknown
Orbital elements
Apogee altitude
897.507 km
Perigee altitude
662.906 km
Semi-major axis
7,158.344 km
Eccentricity
0.01639
Inclination
97.9259°
RAAN
244.5158°
Arg. of periapsis
105.7314°
True anomaly
254.38691°
Mean anomaly
256.2013°
Eccentric anomaly
255.29318°
Mean motion
3.58364 °/min
Orbital period
100.46 mins
BSTAR
0.00053978
Loading maneuver chart data...
Computing Atmospheric mass density...
Loading historical data...
Loading historical data...
Loading historical data...
Loading historical data...
Loading historical data...
Loading historical data...
Loading historical data...
Other satellites on launch #59 in the year 2014 (2014-09-28 UTC)

Documentation

Showing up to 5 results
|